Regional Weather Roundup
Issued by NWS

Home | Current Version | Previous Version | Text Only | Print | Product List | Glossary On
Versions: 1 2 3 4 5 6 7 8 9 10 11 12 13 14 15 16 17 18 19 20 21 22 23 24 25 26 27 28 29 30 31 32 33 34 35 36 37 38 39 40 41 42 43 44 45 46 47 48 49 50
000
ASUS45 KPSR 191410
RWRAZ

ARIZONA REGIONAL HOURLY WEATHER ROUNDUP
NATIONAL WEATHER SERVICE PHOENIX AZ
700 AM MST FRI DEC 19 2014

NOTE: FAIR INDICATES FEW OR NO CLOUDS BELOW 12,000 FEET WITH NO
SIGNIFICANT WEATHER AND/OR OBSTRUCTIONS TO VISIBILITY.

AZZ001>003-036-191500-
NORTHWEST ARIZONA

CITY           SKY/WX    TMP DP  RH WIND       PRES   REMARKS
BULLHEAD CITY  CLEAR     45  39  81 CALM      30.24S
KINGMAN        CLEAR     31  27  85 E5        30.22S WCI  26
$$

AZZ004>008-015-016-018-191500-
NORTH CENTRAL ARIZONA

CITY           SKY/WX    TMP DP  RH WIND       PRES   REMARKS
GRAND CANYON   PTCLDY    16  13  88 E3        30.25R
PRESCOTT       CLEAR     25  21  85 S3        30.23R
FLAGSTAFF      PTCLDY    11   7  84 CALM      30.22R
PAYSON         CLEAR     30  25  80 CALM      30.23R
PAGE           CLEAR     34  27  75 SW3       30.25R HAZE
$$

AZZ009>014-017-191500-
NORTHEAST ARIZONA

CITY           SKY/WX    TMP DP  RH WIND       PRES   REMARKS
WINSLOW        PTCLDY    23  21  92 SE3       30.27R
SAINT JOHNS    CLOUDY    31  30  96 CALM      30.24R
WINDOW ROCK    CLEAR     19  15  84 CALM      30.23R
SHOW LOW       FOG       25  25 100 CALM      30.26R VSB 1/4
$$

AZZ023-191500-
GREATER PHOENIX AREA

CITY           SKY/WX    TMP DP  RH WIND       PRES   REMARKS
PHOENIX        PTCLDY    45  42  89 CALM      30.20R
BUCKEYE          N/A     39  39 100 NE3       30.21S
GLENDALE       PTCLDY    43  43 100 CALM      30.22R
LUKE AFB       CLEAR     41 N/A N/A N7        30.20R
DEER VALLEY    CLEAR     44  37  76 N5        30.20R
SCOTTSDALE     CLEAR     42  38  85 CALM      30.21R
MESA-GATEWAY   PTCLDY    37  36  93 CALM      30.22R
CHANDLER       PTCLDY    41  41 100 CALM      30.21R
$$

AZZ027-028-191500-
SOUTHWEST MARICOPA COUNTY AND PINAL COUNTY

CITY           SKY/WX    TMP DP  RH WIND       PRES   REMARKS
CASA GRANDE    CLEAR     39  37  93 CALM      30.21R
GILA BEND      FAIR      42  41  97 SE5       30.21S
$$

AZZ503-504-507>509-191500-
SOUTHEAST ARIZONA

CITY           SKY/WX    TMP DP  RH WIND       PRES   REMARKS
TUCSON         CLEAR     38  35  89 SE7       30.21R WCI  33
DAVIS-MONTHAN  CLEAR     37  35  93 SE6       30.19R WCI  33
RYAN FIELD       N/A     37  37 100 CALM      30.22R
NOGALES        FOG       33  31  92 S6        30.17R VSB 1/4 WCI  28
SIERRA VISTA   PTCLDY    32  28  86 S3        30.18R
DOUGLAS        CLEAR     26  24  92 NE3       30.19R FOG
SAFFORD        CLOUDY    33  32  96 CALM      30.21R
$$

AZZ020-021-025-026-031-191500-
SOUTHWEST ARIZONA

CITY           SKY/WX    TMP DP  RH WIND       PRES   REMARKS
YUMA           PTCLDY   N/A N/A N/A CALM      30.20R
$$

CAZ031-033-041-043-047-048-061-191500-
SOUTHERN CALIFORNIA

CITY           SKY/WX    TMP DP  RH WIND       PRES   REMARKS
DOWNTOWN L.A.  PTCLDY    50  44  80 CALM      30.22R
L.A. AIRPORT   PTCLDY    52  45  77 CALM      30.22R
SAN DIEGO      MOCLDY    53  45  74 CALM      30.23R
BURBANK        CLEAR     47  41  80 CALM      30.21R
ONTARIO        MOCLDY    47  39  74 CALM      30.22R
RIVERSIDE      MOCLDY    45  41  86 NE5       30.22R
PALM SPRINGS   PTCLDY    49  40  71 NW7       30.24R
EL CENTRO NAS  PTCLDY    44  41  89 W6        30.21R
IMPERIAL       CLEAR     43  40  89 SW3       30.21R
BLYTHE         CLEAR     46  40  79 W6        30.22R
NEEDLES        CLEAR     44  38  79 S5        30.22R
$$

NVZ020-UTZ003-191500-
SOUTHERN NEVADA-UTAH

CITY           SKY/WX    TMP DP  RH WIND       PRES   REMARKS
LAS VEGAS      PTCLDY    41  35  79 SW6       30.20R
SALT LAKE CITY PTCLDY    33  27  78 SE12      30.19R WCI  24
$$

NMZ009-TXZ055-191500-
NEW MEXICO-WEST TEXAS

CITY           SKY/WX    TMP DP  RH WIND       PRES   REMARKS
ALBUQUERQUE    PTCLDY    32  25  75 N5        30.21R WCI  27
EL PASO        PTCLDY    35  33  92 CALM      30.18R
$$


........................KEY........................
SKY/WX - SKY CONDITION/WEATHER
TMP    - TEMPERATURE IN FAHRENHEIT
DP     - DEW POINT IN FAHRENHEIT
RH     - RELATIVE HUMIDITY IN PERCENT
WIND   - DIRECTION AND SPEED IN MILES PER HOUR (MPH)
VRB    - VARIABLE WIND DIRECTION
PRES   - MEAN SEA LEVEL PRESSURE IN INCHES OF MERCURY
         F - FALLING PRESSURE   R - RISING PRESSURE
         S - STEADY PRESSURE
VSB    - VISIBILITY IN MILES
HX     - HEAT INDEX IN FAHRENHEIT
WCI    - WIND CHILL INDEX IN FAHRENHEIT
TC     - TEMPERATURE IN CELSIUS WHICH IS ALSO KNOWN AS
         TEMPERATURE IN CENTIGRADE
AFB    - AIR FORCE BASE
         LUKE AFB IS LUKE AIR FORCE BASE
         DAVIS-MONTHAN IS DAVIS-MONTHAN AIR FORCE BASE
NAS    - NAVAL AIR STATION
         EL CENTRO NAS IS EL CENTRO NAVAL AIR STATION
N/A    - NOT AVAILABLE



USA.gov is the U.S. government's official web portal to all federal, state and local government web resources and services.